Regional Weather Roundup
Issued by NWS

Home | Current Version | Previous Version | Graphics & Text | Print | Product List | Glossary On
Versions: 1 2 3 4 5 6 7 8 9 10 11 12 13 14 15 16 17 18 19 20 21 22 23 24 25 26 27 28 29 30 31 32 33 34 35 36 37 38 39 40 41 42 43 44 45 46 47 48 49 50
080
ASUS45 KTFX 280310
RWRMT
MONTANA REGIONAL WEATHER ROUNDUP
NATIONAL WEATHER SERVICE GREAT FALLS MT
900 PM MDT WED JUL 27 2016

NOTE: "FAIR" INDICATES FEW OR NO CLOUDS BELOW 12000 FEET WITH NO
SIGNIFICANT WEATHER AND/OR OBSTRUCTIONS TO VISIBILITY.

MTZ001>007-043-280400-
WEST OF THE DIVIDE

CITY           SKY/WX    TMP DP  RH WIND       PRES   REMARKS
KALISPELL      CLOUDY    75  48  38 N16       30.10R
MISSOULA       MOCLDY    83  45  26 N15       30.05R
BUTTE          CLEAR     75  44  33 NE12      30.18R
MULLAN PASS    PTCLDY    67  47  48 NW5       30.26S
ANACONDA         N/A     72  46  40 NW7       30.15R
DEER LODGE       N/A     70  48  46 N6        30.19R
EUREKA           N/A     72  54  53 N5        30.10R
HAMILTON         N/A     75  50  41 W7        30.07R
LIBBY            N/A     84  50  30 E14G22    30.05R
PLAINS           N/A     73  59  61 CALM      30.06R
RONAN            N/A     71  58  63 N1        30.12R
$$

MTZ008-052>055-280400-
SOUTHWEST MONTANA

CITY           SKY/WX    TMP DP  RH WIND       PRES   REMARKS
BOZEMAN        CLEAR     78  45  30 VRB7      30.12R
DILLON         PTCLDY    73  47  39 NE10      30.13R THUNDER HAZE
W YELLOWSTONE  CLOUDY    70  37  30 S10       30.25S
ENNIS          CLEAR     75  43  31 N17G24    30.18R
THREE FORKS      N/A     76   6   7 CALM      30.10R
TWIN BRIDGES     N/A     79  42  26 N18       30.07S
$$

MTZ009-010-012-014-046-048-049-054-280400-
EAST SLOPES AND CENTRAL MONTANA

CITY           SKY/WX    TMP DP  RH WIND       PRES   REMARKS
CUT BANK       CLOUDY    63  54  72 SW9       30.20R
GREAT FALLS    PTCLDY    74  52  46 E15       30.15R
MALMSTROM AFB  PTCLDY    72  53  51 NE14      30.15R
HELENA         PTCLDY    75  49  39 W6        30.11R
CHOTEAU          N/A     63  54  72 N8G21     30.21S
CONRAD           N/A     61  61 100 NE12      30.23R
$$

MTZ011-013-016-021-045-047-050-051-280400-
NORTH CENTRAL MONTANA

CITY           SKY/WX    TMP DP  RH WIND       PRES   REMARKS
HAVRE          CLEAR     68  59  73 E9        30.14S
LEWISTOWN      CLEAR     67  55  65 NE5       30.21R
N BAR RANCH      N/A     64  55  72 NE10      30.24S
CHINOOK          N/A     70  61  73 CALM      30.15R
$$

MTZ017>020-022>027-061-062-280400-
NORTHEAST MONTANA

CITY           SKY/WX    TMP DP  RH WIND       PRES   REMARKS
GLASGOW        CLOUDY    62  59  90 E6        30.12S
JORDAN           N/A     64  60  87 N14       30.13R
SIDNEY         CLEAR     66  61  84 NE6       30.13R
WOLF POINT     CLOUDY    71  61  70 NE8       30.12S
PLENTYWOOD       N/A     66  61  82 E3        30.15R
SCOBEY           N/A     65  50  58 CALM      30.14R
$$

MTZ028>42-056>058-280400-
SOUTHCENTRAL AND SOUTHEAST MONTANA

CITY           SKY/WX    TMP DP  RH WIND       PRES   REMARKS
BAKER          PTCLDY    69  60  73 E7        30.14R
BILLINGS       MOCLDY    75  58  55 NE8       30.13R
LIVINGSTON     CLEAR     75  49  39 E21       30.16R
MILES CITY     CLOUDY    73  60  63 NE8       30.07F
EKALAKA          N/A     69  53  56 E6        30.11R
FORSYTH          N/A     66  57  72 SE8       30.10R
LAUREL           N/A     71  54  55 MISG      30.12R
ROUNDUP          N/A     69  59  70 CALM      30.08R
$$

REGIONAL REPORTS...DAKOTAS

CITY           SKY/WX    TMP DP  RH WIND       PRES   REMARKS
WILLISTON      CLOUDY    66  59  78 NE5       30.14R
MINOT          CLOUDY    69  60  73 NE5       30.13R
DICKINSON      CLOUDY    63  60  90 NE8       30.13R
BEACH            N/A     64  63  94 E7        30.17R
CROSBY           N/A     64  64 100 S3        30.17R
WATFORD CITY     N/A    N/A N/A N/A MISG        N/A
BISMARCK       CLOUDY    70  61  73 E8        30.12R
GRAND FORKS    PTCLDY    67  57  70 N10       30.07R
FARGO          CLOUDY    69  60  73 NW10      30.05R
BUFFALO SD       N/A     67  57  70 E10       30.08R
RAPID CITY     PTCLDY    67  58  72 E5        30.15R
$$

REGIONAL REPORTS...WYOMING/IDAHO/WASHINGTON

CITY           SKY/WX    TMP DP  RH WIND       PRES   REMARKS
GILLETTE       CLEAR     67  58  72 SE3       30.13R
SHERIDAN       PTCLDY    79  49  34 N9        30.12R
BUFFALO WY     PTCLDY    76  50  40 SE3       30.19R
CODY           CLOUDY    70  50  49 W5        30.19R
YELLOWSTONE LA   N/A     53  49  86 NW5       30.37S
IDAHO FALLS    CLEAR     86  37  17 S7        30.04F
SALMON         CLOUDY    81  45  28 NE7       30.01R
BOISE          CLEAR     93  41  16 NW9       29.92S
SPOKANE        PTCLDY    88  44  21 NW7       30.01S
$$

REGIONAL REPORTS...ALBERTA

CITY           SKY/WX    TMP DP  RH WIND       PRES   REMARKS
EDMONTON       PTCLDY    73  57  56 W3        30.12R
CALGARY        MOCLDY    73  52  46 SW6       30.18S
LETHBRIDGE     MOCLDY    64  57  77 W14       30.14F
MEDICINE HAT   MOCLDY    72  57  60 E5        30.12R
WATERTON GATE    N/A     61  54  77 E3          N/A
CARDSTON         N/A     64  55  72 W1          N/A
MILK RIVER       N/A     66  57  72 NE7         N/A
ONEFOUR          N/A     66  54  63 E9          N/A
$$

REGIONAL REPORTS...SASKATCHEWAN

CITY           SKY/WX    TMP DP  RH WIND       PRES   REMARKS
SWIFT CURRENT  CLEAR     64  54  68 E7        30.16S
REGINA         PTCLDY    66  55  68 E7        30.16R
SASKATOON      PTCLDY    70  54  56 S8        30.15R
CYPRESS HILLS    N/A     61  52  72 E3          N/A
VAL MARIE        N/A     63  59  88 CALM        N/A
ROCKGLEN         N/A     63  54  72 SE3         N/A
ASSINIBOIA       N/A     70  64  83 SW1         N/A
$$




USA.gov is the U.S. government's official web portal to all federal, state and local government web resources and services.